📊 Raw Sensor Data

Showing records 37226 to 37250 of 84,909 total

ID Distance (ft) Battery V Battery A Int Temp (°F) Int Humid (%) Ext Temp (°F) Solar V RSSI SNR Time Stamp
47696 15.6 3.94 6 104 43 94 5.10 -71 8 07/29/2025 03:15 PM
47695 15.6 3.97 6 104 43 94 5.10 -70 8 07/29/2025 03:00 PM
47694 15.6 3.94 6 103 42 95 5.10 -70 8 07/29/2025 02:45 PM
47693 15.6 4.02 6 102 42 92 5.20 -70 8 07/29/2025 02:30 PM
47692 15.6 3.99 6 101 42 91 5.10 -69 8 07/29/2025 02:15 PM
47691 15.6 3.93 6 99 42 89 5.10 -70 8 07/29/2025 02:00 PM
47690 15.6 3.93 6 98 42 91 5.10 -69 8 07/29/2025 01:45 PM
47689 15.6 3.93 6 97 42 88 5.10 -69 8 07/29/2025 01:30 PM
47688 15.6 3.93 0 95 43 88 5.10 -70 8 07/29/2025 01:15 PM
47687 15.6 3.93 6 94 43 86 5.10 -71 7 07/29/2025 01:00 PM
47686 15.6 3.93 6 93 43 87 5.10 -70 7 07/29/2025 12:45 PM
47685 15.6 3.93 0 91 43 87 5.20 -71 8 07/29/2025 12:30 PM
47684 15.6 3.93 0 89 43 88 5.10 -71 6 07/29/2025 12:15 PM
47683 15.6 4.05 0 88 43 87 5.10 -69 8 07/29/2025 12:00 PM
47682 15.6 3.93 0 87 43 82 5.10 -69 7 07/29/2025 11:45 AM
47681 15.6 3.93 0 85 43 87 5.10 -70 7 07/29/2025 11:30 AM
47680 15.6 3.93 0 84 43 85 5.10 -69 8 07/29/2025 11:15 AM
47679 15.6 3.93 5 83 43 85 5.10 -69 8 07/29/2025 11:00 AM
47678 15.6 3.93 0 82 43 82 5.10 -69 8 07/29/2025 10:45 AM
47677 15.6 3.93 5 81 43 83 5.10 -69 8 07/29/2025 10:30 AM
47676 15.6 3.93 0 80 43 81 5.10 -70 8 07/29/2025 10:15 AM
47675 15.7 3.93 0 79 43 82 5.10 -70 8 07/29/2025 10:00 AM
47674 15.7 4.04 5 78 43 81 5.10 -71 7 07/29/2025 09:45 AM
47673 15.6 3.93 5 76 43 81 5.10 -70 8 07/29/2025 09:30 AM
47672 15.6 3.93 5 74 44 74 5.10 -70 7 07/29/2025 09:15 AM